STARLINK-4199, 52857

Orbit data source: Space-Track

STARLINK-4199, 52857 is a payload satellite owned by SpaceX/Seattle (US) in LEO that was launched on Fri, 17 Jun 2022 UTC via an FALCON 9 launch vehicle from the Air Force Eastern Test Range (AFETR). Payload-class satellites include a variety of spacecraft equipped with specific instruments for various scientific and technological missions. These include communications satellites like Starlink; space stations such as the ISS; scientific satellites like the Hubble; Earth observation satellites from companies like Planet Labs, Umbra, and HawkEye 360; GPS; miniature CubeSats for education and research; and military/defense satellites.

Loading next visibility...
Identifier
52857, 2022-062AD
Orbit
LEO
Country
Flag of USUS
Related business
Manufacturer
SpaceX/Seattle
Mission
Operational Commercial Communications
Bus & Motor
STARLINK, Unknown motor
Mass
297 kg wet, ~275 kg dry
Launch date (UTC)
2022-06-17 (3 years ago)
Launch vehicle
FALCON 9
Launch site
Air Force Eastern Test Range (AFETR)
Object type
Payload
Rocket body
Debris
Shape & HBR
Box + 1 Pan, 10.1 m
Radar Cross Section
13.562 m², Large (>1 m²)

Expand to show TLE details & history
Last TLE update: 17 hours ago

TLE from 17 hours ago
0 STARLINK-4199
1 52857U 22062AD  25349.35749484  .00001632  00000-0  12064-3 0  9994
2 52857  53.2185  42.7046 0001370  85.2237 274.8911 15.08836225193199
Epoch: 2025-12-15T08:34Z
TLE epoch observation values (Epoch: 2025-12-15T08:34:47.554Z)
Latitude
-0.00005°
Longitude
-170.2508°
Altitude
540.572 km
Speed
7.593 km/s
True Right ascension
02h 50m 49s
True Declination
0° 00' 00"
Sunlit
Object was in full shadow at epoch
Visualization orbit readout
Latitude
Unknown
Longitude
Unknown
Altitude
Unknown
Speed
Unknown
Apparent Right ascension
Unknown
Apparent Declination
Unknown
Sunlit
N/A
Visualization observer readout
Local Sidereal Time
00:23:56
Azimuth
Unknown
Elevation
Unknown
Doppler factor
Unknown
Orbital elements
Apogee altitude
540.947 km
Perigee altitude
539.052 km
Semi-major axis
6,918.137 km
Eccentricity
0.00014
Inclination
53.2185°
RAAN
42.7046°
Arg. of periapsis
85.2237°
True anomaly
274.87546°
Mean anomaly
274.8911°
Eccentric anomaly
274.88328°
Mean motion
3.77189 °/min
Orbital period
95.44 mins
BSTAR
0.00012064
Loading maneuver chart data...
Computing Atmospheric mass density...
Loading historical data...
Loading historical data...
Loading historical data...
Loading historical data...
Loading historical data...
Loading historical data...
Loading historical data...

Documentation

Showing up to 5 results
|